[[{"header":{"parameterUnit":"m.s-1","parameterCategory":1,"la1":30.2991,"la2":30.254,"lo1":-89.0895,"lo2":-89.0444,"dy":0.0017,"dx":0.0017,"nx":28,"ny":28,"refTime":"2024-10-05T03:00:00:Z","depth":0,"parameterNumber":2,"parameterNumberName":"U-component_of_WINDS"},"data":[0,0,0,0,0,0,0,0,0,0,0,0,0,0,0,0,0,0,0,0,0,0,0,0,0,0,0,0,0,0,0,0,0,0,0,0,0,0,0,0,0,0,0,0,0,0,0,0,0,0,0,0,0,0,0,0,0,0,-3.0115,-3.0116,0,-3.0198,-3.0199,-3.02,-3.0098,-3.0094,-3.009,-3.0087,-3.0177,-3.0183,-3.0189,0,0,0,0,0,0,0,0,0,0,0,0,0,-2.9871,-2.9876,-3.0115,-3.0116,-3.0117,-3.0198,-3.0199,-3.02,-3.0099,-3.0094,-3.0089,-3.0085,-3.0176,-3.0183,-3.019,0,0,0,0,0,0,0,0,0,0,0,0,0,-2.9968,-2.9877,-3.0115,-3.0076,-3.0073,-3.0198,-3.0199,-3.0201,-3.01,-3.0094,-3.0088,-3.0083,-3.0173,-3.0182,-3.0191,-3.0359,0,0,-3.0218,-3.0222,0,0,0,0,0,0,0,0,-2.9963,-2.9977,-3.008,-3.0079,-3.0076,-3.0132,-3.0146,-3.0254,-3.0101,-3.009,-3.0087,-3.008,-3.0167,-3.0176,-3.0205,-3.0364,-3.0367,-3.0219,-3.0224,-3.0228,-3.023,0,0,0,0,0,0,0,-2.9956,-2.9973,-3.0148,-3.0082,-3.0079,-3.0055,-3.0063,-3.0166,-3.016,-3.009,-3.0083,-3.0094,-3.0165,-3.0196,-3.0206,-3.0369,-3.0218,-3.0226,-3.0232,-3.0235,-3.0671,-3.0677,0,0,0,0,0,0,-2.9953,-2.9968,-3.0145,-3.015,-3.0004,-3.0064,-3.0073,-3.012,-3.0158,-3.0158,-3.0099,-3.0089,-3.0184,-3.0196,-3.0209,-3.041,-3.0228,-3.0236,-3.0241,-3.0665,-3.0673,-3.0679,0,0,0,0,0,0,-2.9948,-2.997,-3.0142,-3.0057,-3.0077,-3.0074,-3.0128,-3.0124,-3.0155,-3.0164,-3.0163,-3.0132,-3.018,-3.0196,-3.0323,-3.0412,-3.024,-3.0248,-3.0658,-3.0667,-3.0676,-3.0814,0,0,0,0,0,0,-2.9942,-2.9969,-3.0032,-3.0059,-3.0082,-3.0254,-3.0133,-3.013,-3.0171,-3.0159,-3.0195,-3.0196,-3.0177,-3.031,-3.0331,-3.0421,-3.0255,-3.065,-3.0662,-3.0673,-3.0802,-3.0827,-3.0849,0,0,0,0,0,-2.9933,-3.0068,-3.0036,-3.0058,-3.0161,-3.0259,-3.0272,-3.0246,-3.0178,-3.0243,-3.0248,-3.0195,-3.0398,-3.0324,-3.0347,-3.0441,-3.0644,-3.0659,-3.0672,-3.0791,-3.0822,-3.0848,0,0,0,0,0,0,-3.0054,-3.0071,-3.0035,-3.0183,-3.022,-3.0241,-3.0322,-3.0279,-3.0338,-3.0324,-3.029,-3.03,-3.0435,-3.0449,-3.0367,-3.0606,-3.051,-3.0529,-3.0592,-3.0622,-3.0645,-3.064,-3.0263,0,0,0,0,0,-3.0097,-3.0174,-3.0185,-3.0315,-3.0335,-3.0325,-3.0367,-3.0343,-3.0381,-3.0397,-3.0411,-3.0452,-3.0524,-3.0573,-3.064,-3.0802,-3.081,-3.0878,-3.0901,-3.092,-3.0939,-3.1027,-3.1058,-3.0726,-3.0725,-3.0725,0,0,-3.0189,-3.0207,-3.0258,-3.0339,-3.0365,-3.0447,-3.034,-3.043,-3.0491,-3.0411,-3.0532,-3.0544,-3.0586,-3.0731,-3.0795,-3.0748,-3.1032,-3.0938,-3.0954,-3.0962,-3.1045,-3.1076,-3.1104,-3.0735,-3.0733,-3.0732,0,0,-3.0397,-3.0418,-3.0529,-3.0557,-3.0596,-3.0589,-3.0615,-3.0643,-3.0648,-3.0767,-3.0709,-3.0781,-3.0907,-3.094,-3.0973,-3.1192,-3.1146,-3.1215,-3.134,-3.1426,-3.1452,-3.1475,-3.1556,-3.1585,-3.1233,-3.1233,-3.1233,0,-3.0507,-3.0626,-3.0592,-3.0687,-3.0725,-3.0653,-3.0766,-3.0795,-3.0856,-3.0885,-3.0829,-3.0985,-3.1008,-3.1161,-3.1214,-3.1243,-3.1274,-3.1213,-3.1451,-3.1474,-3.1495,-3.1572,-3.1602,-3.1241,-3.124,-3.1239,-3.1239,0,-3.076,-3.0843,-3.0928,-3.0987,-3.1034,-3.1138,-3.112,-3.1172,-3.1144,-3.1143,-3.1266,-3.1291,-3.1362,-3.1396,-3.137,-3.1545,-3.1515,-3.1456,-3.1359,-3.1536,-3.1607,-3.1636,-3.1253,-3.125,-3.1248,-3.1246,0,0,-3.105,-3.1087,-3.1119,-3.1145,-3.1183,-3.1248,-3.1348,-3.1416,-3.1463,-3.1506,-3.1591,-3.1698,-3.1644,-3.1682,-3.1658,-3.1733,-3.1908,-3.1665,-3.1665,-3.1712,-3.2106,-3.2152,-3.2187,-3.1876,-3.1881,-3.1886,-3.2103,0,-3.1261,-3.1434,-3.1405,-3.1574,-3.1652,-3.1584,-3.1671,-3.1705,-3.1706,-3.1773,-3.1774,-3.1852,-3.1773,-3.1795,-3.1866,-3.1872,-3.1988,-3.1855,-3.1958,-3.1962,-3.1953,-3.2224,-3.2274,-3.2478,-3.2131,-3.2135,-3.2139,0,-3.1532,-3.1584,-3.176,-3.1785,-3.1817,-3.1896,-3.1957,-3.2021,-3.2058,-3.2053,-3.2095,-3.2057,-3.2158,-3.2057,-3.2198,-3.2109,-3.2148,-3.2157,-3.2164,-3.2176,-3.2064,-3.2246,-3.2542,-3.2574,-3.2182,-3.2179,-3.2175,0,-3.173,-3.1844,-3.1964,-3.1988,-3.202,-3.2077,-3.2094,-3.2124,-3.2167,-3.222,-3.2248,-3.2312,-3.2349,-3.24,-3.2381,-3.2309,-3.2527,-3.2423,-3.2528,-3.2529,-3.2581,-3.2578,-3.2891,-3.2601,-3.26,-3.26,-3.2599,0,-3.1971,-3.2082,-3.2053,-3.2128,-3.225,-3.2215,-3.2338,-3.2346,-3.2374,-3.245,-3.2394,-3.2467,-3.2436,-3.2507,-3.2492,-3.2613,-3.2629,-3.263,-3.2625,-3.2637,-3.2637,-3.2665,-3.2652,-3.2608,-3.2606,-3.2604,-3.2603,0,-3.2215,-3.2199,-3.2326,-3.2345,-3.2352,-3.2442,-3.2459,-3.253,-3.2525,-3.2622,-3.2642,-3.2636,-3.2717,-3.2702,-3.2791,-3.2781,-3.2933,-3.2909,-3.2921,-3.2916,-3.3023,-3.3015,-3.3367,-3.3413,-3.309,-3.3093,-3.3096,0,-3.2371,-3.2455,-3.2482,-3.2528,-3.2548,-3.2623,-3.2666,-3.2635,-3.2682,-3.273,-3.2795,-3.287,-3.2929,-3.3061,-3.3065,-3.3133,-3.3113,-3.3232,-3.3123,-3.3133,-3.3119,-3.3115,-3.3125,-3.3255,-3.3258,-3.3261,-3.3264,0,-3.2652,-3.264,-3.2703,-3.2764,-3.2817,-3.2864,-3.2905,-3.2946,-3.2919,-3.2975,-3.3056,-3.3101,-3.3191,-3.3267,-3.333,-3.3348,-3.3304,-3.3297,-3.3326,-3.334,-3.3345,-3.3347,-3.2983,-3.329,-3.3288,-3.3286,-3.3284,-3.3283,-3.2859,-3.293,-3.2961,-3.3033,-3.3061,-3.3101,-3.3168,-3.3171,-3.3237,-3.3307,-3.3284,-3.3377,-3.3411,-3.3491,-3.3516,-3.3589,-3.3545,-3.3586,-3.3597,-3.3608,-3.3623,-3.333,-3.36,-3.3599,-3.3599,-3.3598,-3.3597,0,-3.3139,-3.3155,-3.3221,-3.3281,-3.3338,-3.3286,-3.333,-3.3382,-3.3464,-3.3499,-3.3557,-3.365,-3.3723,-3.3733,-3.3802,-3.3859,-3.384,-3.3879,-3.3876,-3.3882,-3.3656,-3.3626,-3.3893,-3.3893,-3.3893,-3.3893,-3.3893,-3.3893,-3.3292,-3.3411,-3.3402,-3.3534,-3.3549,-3.3638,-3.3668,-3.3705,-3.3732,-3.3839,-3.3899,-3.3903,-3.3928,-3.3999,-3.4064,-3.4065,-3.4095,-3.4142,-3.4136,-3.3926,-3.3897,-3.3869,-3.3841,-3.4148,-3.4148,-3.4355,-3.4357,-3.4358]},{"header":{"parameterUnit":"m.s-1","parameterCategory":1,"la1":30.2991,"la2":30.254,"lo1":-89.0895,"lo2":-89.0444,"dy":0.0017,"dx":0.0017,"nx":28,"ny":28,"refTime":"2024-10-05T03:00:00:Z","depth":0,"parameterNumber":3,"parameterNumberName":"V-component_of_WINDS"},"data":[0,0,0,0,0,0,0,0,0,0,0,0,0,0,0,0,0,0,0,0,0,0,0,0,0,0,0,0,0,0,0,0,0,0,0,0,0,0,0,0,0,0,0,0,0,0,0,0,0,0,0,0,0,0,0,0,0,0,-4.1238,-4.1238,0,-4.1272,-4.1273,-4.1273,-4.121,-4.1208,-4.1206,-4.1204,-4.1236,-4.1239,-4.1242,0,0,0,0,0,0,0,0,0,0,0,0,0,-4.1113,-4.1115,-4.1238,-4.1238,-4.1239,-4.1272,-4.1273,-4.1273,-4.1211,-4.1208,-4.1206,-4.1203,-4.1235,-4.1238,-4.1242,0,0,0,0,0,0,0,0,0,0,0,0,0,-4.1159,-4.1116,-4.1238,-4.1211,-4.1209,-4.1272,-4.1273,-4.1273,-4.1211,-4.1208,-4.1205,-4.1202,-4.1234,-4.1238,-4.1242,-4.1331,0,0,-4.1255,-4.1257,0,0,0,0,0,0,0,0,-4.1157,-4.1164,-4.1215,-4.1213,-4.1211,-4.1234,-4.124,-4.1293,-4.1212,-4.121,-4.1204,-4.12,-4.1238,-4.1241,-4.1255,-4.1333,-4.1334,-4.1256,-4.1258,-4.126,-4.1261,0,0,0,0,0,0,0,-4.1154,-4.1162,-4.1251,-4.1216,-4.1213,-4.1197,-4.12,-4.125,-4.1241,-4.121,-4.1206,-4.1211,-4.1236,-4.1251,-4.1255,-4.1335,-4.1255,-4.1259,-4.1262,-4.1263,-4.1486,-4.1489,0,0,0,0,0,0,-4.1154,-4.116,-4.125,-4.1252,-4.1176,-4.1201,-4.1205,-4.123,-4.124,-4.1239,-4.1214,-4.1208,-4.1245,-4.125,-4.1256,-4.136,-4.126,-4.1264,-4.1266,-4.1483,-4.1487,-4.1491,0,0,0,0,0,0,-4.1152,-4.1163,-4.1249,-4.1205,-4.1215,-4.1207,-4.1235,-4.1232,-4.1247,-4.1243,-4.1241,-4.1231,-4.1243,-4.125,-4.1313,-4.136,-4.1266,-4.127,-4.1479,-4.1484,-4.1489,-4.157,0,0,0,0,0,0,-4.1148,-4.1162,-4.1197,-4.1206,-4.1217,-4.1307,-4.1238,-4.1235,-4.1255,-4.1247,-4.1258,-4.1257,-4.1241,-4.1307,-4.1317,-4.1364,-4.1273,-4.1475,-4.1481,-4.1487,-4.1563,-4.1577,-4.1589,0,0,0,0,0,-4.1144,-4.1218,-4.1199,-4.121,-4.1261,-4.131,-4.1316,-4.1297,-4.1259,-4.1293,-4.129,-4.1257,-4.1354,-4.1314,-4.1325,-4.1374,-4.1471,-4.1479,-4.1487,-4.1557,-4.1574,-4.1589,0,0,0,0,0,0,-4.1213,-4.1218,-4.1198,-4.1277,-4.1294,-4.1299,-4.1341,-4.1316,-4.1342,-4.1335,-4.1309,-4.1312,-4.138,-4.1383,-4.1339,-4.146,-4.1406,-4.1416,-4.1456,-4.1472,-4.1485,-4.1482,-4.1276,0,0,0,0,0,-4.1238,-4.1278,-4.128,-4.135,-4.1359,-4.1349,-4.137,-4.1354,-4.1369,-4.1376,-4.1378,-4.1393,-4.1427,-4.145,-4.148,-4.1563,-4.1564,-4.1602,-4.1615,-4.1626,-4.1635,-4.1678,-4.1695,-4.1516,-4.1516,-4.1516,0,0,-4.1288,-4.1296,-4.1323,-4.1364,-4.1375,-4.1416,-4.1355,-4.1402,-4.1432,-4.1382,-4.1442,-4.1444,-4.146,-4.1533,-4.1565,-4.1538,-4.1685,-4.1636,-4.1644,-4.1647,-4.1688,-4.1705,-4.172,-4.1521,-4.152,-4.1519,0,0,-4.1402,-4.1413,-4.1471,-4.1484,-4.1502,-4.1494,-4.1509,-4.1518,-4.1518,-4.1578,-4.1542,-4.1576,-4.1635,-4.1648,-4.1662,-4.178,-4.175,-4.1791,-4.1859,-4.1901,-4.1916,-4.1928,-4.1969,-4.1985,-4.18,-4.18,-4.18,0,-4.1462,-4.1525,-4.1504,-4.1554,-4.1572,-4.153,-4.1589,-4.1601,-4.1628,-4.1641,-4.161,-4.1684,-4.1691,-4.1766,-4.1795,-4.1808,-4.1822,-4.1789,-4.1915,-4.1928,-4.1939,-4.1978,-4.1994,-4.1805,-4.1804,-4.1804,-4.1803,0,-4.1598,-4.1641,-4.1686,-4.1715,-4.1738,-4.1792,-4.1778,-4.1804,-4.1786,-4.1782,-4.1843,-4.185,-4.1882,-4.1899,-4.1881,-4.1971,-4.1954,-4.192,-4.1865,-4.1961,-4.1997,-4.2012,-4.1812,-4.181,-4.1808,-4.1807,0,0,-4.1755,-4.1772,-4.1788,-4.18,-4.1817,-4.185,-4.1901,-4.1933,-4.1955,-4.1975,-4.2017,-4.2068,-4.2036,-4.2052,-4.2036,-4.2073,-4.2165,-4.2034,-4.2034,-4.2058,-4.2264,-4.2289,-4.2307,-4.2146,-4.2149,-4.2151,-4.2263,0,-4.1867,-4.1957,-4.194,-4.2027,-4.2067,-4.2028,-4.2072,-4.2087,-4.2084,-4.2116,-4.2112,-4.2149,-4.2105,-4.2114,-4.215,-4.2147,-4.2206,-4.2139,-4.2183,-4.2185,-4.218,-4.2326,-4.2353,-4.2458,-4.2277,-4.2279,-4.2281,0,-4.201,-4.2037,-4.2128,-4.2138,-4.2154,-4.2195,-4.2222,-4.2254,-4.2269,-4.2264,-4.2282,-4.2259,-4.2308,-4.2253,-4.232,-4.2275,-4.2292,-4.2293,-4.2297,-4.2299,-4.2238,-4.2332,-4.2491,-4.2506,-4.2303,-4.2301,-4.23,0,-4.2115,-4.2173,-4.2235,-4.2247,-4.226,-4.229,-4.2296,-4.2308,-4.2329,-4.2352,-4.2365,-4.2394,-4.241,-4.2432,-4.2416,-4.2378,-4.2486,-4.243,-4.2483,-4.2483,-4.2506,-4.2505,-4.267,-4.2519,-4.2519,-4.2518,-4.2518,0,-4.2242,-4.2299,-4.2283,-4.2321,-4.2383,-4.2363,-4.2425,-4.2427,-4.2438,-4.2475,-4.2442,-4.2477,-4.2455,-4.2488,-4.2475,-4.2533,-4.254,-4.2537,-4.2533,-4.2539,-4.254,-4.2549,-4.2541,-4.2523,-4.2522,-4.2521,-4.252,0,-4.2369,-4.2361,-4.2426,-4.2434,-4.2437,-4.2483,-4.2488,-4.2523,-4.2518,-4.2565,-4.2575,-4.2567,-4.2604,-4.2591,-4.263,-4.2621,-4.2694,-4.2681,-4.2689,-4.2686,-4.2739,-4.2734,-4.2915,-4.2937,-4.2773,-4.2775,-4.2776,0,-4.245,-4.2494,-4.2507,-4.253,-4.2539,-4.2576,-4.2597,-4.2579,-4.2601,-4.2622,-4.2654,-4.2688,-4.2714,-4.2775,-4.2772,-4.2801,-4.2788,-4.2849,-4.2792,-4.2797,-4.2788,-4.2785,-4.2789,-4.286,-4.2862,-4.2864,-4.2865,0,-4.2595,-4.2589,-4.2621,-4.2651,-4.2677,-4.27,-4.272,-4.274,-4.2722,-4.2749,-4.2787,-4.2808,-4.2848,-4.2882,-4.2909,-4.2914,-4.2887,-4.2883,-4.2897,-4.2904,-4.2907,-4.2905,-4.272,-4.2879,-4.2878,-4.2877,-4.2876,-4.2875,-4.2701,-4.2738,-4.2752,-4.2789,-4.2802,-4.2821,-4.2854,-4.2854,-4.2886,-4.2918,-4.2905,-4.2948,-4.2961,-4.2994,-4.3004,-4.3036,-4.3012,-4.3032,-4.3037,-4.3042,-4.3049,-4.2902,-4.3041,-4.3041,-4.304,-4.304,-4.304,0,-4.2843,-4.2851,-4.2885,-4.2914,-4.2943,-4.2916,-4.2936,-4.2961,-4.3,-4.3016,-4.3043,-4.3086,-4.3119,-4.3118,-4.3149,-4.3175,-4.3163,-4.3183,-4.3181,-4.3182,-4.3069,-4.3054,-4.3192,-4.3192,-4.3192,-4.3192,-4.3192,-4.3192,-4.2921,-4.2981,-4.2976,-4.3042,-4.3049,-4.3093,-4.3106,-4.3123,-4.3135,-4.3186,-4.3213,-4.3213,-4.3222,-4.3253,-4.3281,-4.328,-4.3292,-4.3317,-4.3311,-4.3205,-4.319,-4.3176,-4.3161,-4.332,-4.3321,-4.3422,-4.3423,-4.3423]}]]